| time (UTC) | temp F | wind direction | speed MPH | gust MPH | rain 1hr in | rain 24hr in | rain mn in | humidity % | barometer mb |
| 20260510191529 | 84 | 167 | 2.0 | 6.0 | 0.00 | 0.10 | 0.01 | 70 | 1016.2 |
| 20260510190031 | 82 | 0 | 1.0 | 6.0 | 0.00 | 0.10 | 0.01 | 73 | 1016.3 |
| 20260510184535 | 83 | 221 | 1.0 | 5.0 | 0.00 | 0.10 | 0.01 | 69 | 1016.4 |
| 20260510183028 | 83 | 165 | 2.0 | 6.0 | 0.00 | 0.10 | 0.01 | 67 | 1016.6 |
| 20260510181558 | 84 | 229 | 0.0 | 2.0 | 0.00 | 0.10 | 0.01 | 69 | 1016.7 |
| 20260510180037 | 83 | 245 | 0.0 | 3.0 | 0.00 | 0.10 | 0.01 | 68 | 1016.8 |
| 20260510174549 | 83 | 0 | 0.0 | 2.0 | 0.00 | 0.10 | 0.01 | 67 | 1016.9 |
| 20260510173026 | 82 | 0 | 0.0 | 2.0 | 0.00 | 0.10 | 0.01 | 68 | 1016.9 |
| 20260510171530 | 81 | 39 | 1.0 | 4.0 | 0.00 | 0.10 | 0.01 | 70 | 1017.0 |
| 20260510170028 | 80 | 96 | 2.0 | 5.0 | 0.00 | 0.10 | 0.01 | 70 | 1017.3 |
| 20260510164534 | 81 | 347 | 0.0 | 1.0 | 0.00 | 0.16 | 0.01 | 74 | 1017.3 |
| 20260510163028 | 81 | 155 | 2.0 | 3.0 | 0.00 | 0.16 | 0.01 | 72 | 1017.4 |
| 20260510161527 | 79 | 58 | 2.0 | 6.0 | 0.00 | 0.16 | 0.01 | 75 | 1017.4 |
| 20260510160038 | 79 | 91 | 0.0 | 3.0 | 0.00 | 0.16 | 0.01 | 74 | 1017.3 |
| 20260510154528 | 78 | 59 | 1.0 | 5.0 | 0.00 | 1.22 | 0.01 | 79 | 1017.3 |
| 20260510153029 | 77 | 181 | 0.0 | 3.0 | 0.00 | 1.22 | 0.01 | 81 | 1017.5 |
| 20260510151529 | 76 | 60 | 1.0 | 3.0 | 0.00 | 1.22 | 0.01 | 83 | 1017.5 |
| 20260510150031 | 75 | 0 | 1.0 | 3.0 | 0.00 | 1.22 | 0.01 | 84 | 1017.6 |
| 20260510144533 | 74 | 0 | 0.0 | 3.0 | 0.00 | 1.23 | 0.01 | 86 | 1017.7 |
| 20260510143030 | 74 | 8 | 1.0 | 3.0 | 0.00 | 1.23 | 0.01 | 87 | 1017.7 |
| 20260510141534 | 72 | 329 | 1.0 | 3.0 | 0.00 | 1.23 | 0.01 | 89 | 1017.7 |
| 20260510140028 | 71 | 58 | 1.0 | 3.0 | 0.00 | 1.23 | 0.01 | 92 | 1017.4 |
| 20260510134528 | 69 | 42 | 1.0 | 3.0 | 0.00 | 1.24 | 0.01 | 95 | 1017.4 |
| 20260510133030 | 68 | 32 | 2.0 | 3.0 | 0.00 | 1.24 | 0.01 | 96 | 1017.4 |
| 20260510131532 | 67 | 37 | 2.0 | 4.0 | 0.00 | 1.24 | 0.01 | 96 | 1017.3 |
| 20260510130028 | 66 | 24 | 2.0 | 4.0 | 0.00 | 1.24 | 0.01 | 96 | 1017.1 |
| 20260510124529 | 66 | 43 | 1.0 | 3.0 | 0.00 | 1.24 | 0.01 | 96 | 1017.0 |
| 20260510123033 | 65 | 17 | 2.0 | 6.0 | 0.00 | 1.24 | 0.01 | 96 | 1016.8 |
| 20260510121528 | 65 | 25 | 1.0 | 3.0 | 0.00 | 1.24 | 0.01 | 96 | 1016.5 |
| 20260510120029 | 65 | 27 | 0.0 | 2.0 | 0.00 | 1.24 | 0.01 | 96 | 1016.2 |
| 20260510114536 | 65 | 15 | 0.0 | 2.0 | 0.00 | 1.25 | 0.01 | 96 | 1016.1 |
| 20260510113028 | 65 | 0 | 0.0 | 1.0 | 0.00 | 1.25 | 0.01 | 96 | 1015.9 |
| 20260510111530 | 64 | 0 | 0.0 | 0.0 | 0.00 | 1.25 | 0.01 | 96 | 1015.8 |
| 20260510110035 | 65 | 0 | 0.0 | 0.0 | 0.00 | 1.25 | 0.01 | 96 | 1015.6 |
| 20260510104528 | 65 | 0 | 0.0 | 0.0 | 0.00 | 1.25 | 0.01 | 96 | 1015.0 |
| 20260510103028 | 65 | 0 | 0.0 | 0.0 | 0.00 | 1.25 | 0.01 | 96 | 1014.9 |
| 20260510101527 | 65 | 0 | 0.0 | 0.0 | 0.00 | 1.25 | 0.01 | 96 | 1014.9 |
| 20260510100034 | 65 | 0 | 0.0 | 0.0 | 0.00 | 1.25 | 0.01 | 96 | 1014.7 |
| 20260510094530 | 66 | 0 | 0.0 | 0.0 | 0.00 | 1.25 | 0.01 | 96 | 1014.6 |
| 20260510093040 | 66 | 0 | 0.0 | 1.0 | 0.00 | 1.25 | 0.01 | 96 | 1014.3 |
| 20260510091529 | 66 | 0 | 0.0 | 1.0 | 0.01 | 1.25 | 0.01 | 96 | 1014.2 |
| 20260510090031 | 66 | 0 | 0.0 | 1.0 | 0.01 | 1.25 | 0.01 | 96 | 1014.3 |
| 20260510084532 | 66 | 314 | 0.0 | 1.0 | 0.01 | 1.26 | 0.01 | 96 | 1013.9 |
| 20260510083029 | 66 | 0 | 0.0 | 0.0 | 0.01 | 1.26 | 0.01 | 96 | 1013.5 |
| 20260510081530 | 66 | 0 | 0.0 | 0.0 | 0.00 | 1.25 | 0.00 | 96 | 1013.5 |
| 20260510080028 | 67 | 0 | 0.0 | 1.0 | 0.00 | 1.25 | 0.00 | 96 | 1013.2 |
| 20260510074531 | 67 | 0 | 0.0 | 0.0 | 0.00 | 1.25 | 0.00 | 96 | 1013.3 |
| 20260510073028 | 67 | 195 | 0.0 | 1.0 | 0.00 | 1.25 | 0.00 | 96 | 1013.1 |
| 20260510071537 | 67 | 0 | 0.0 | 1.0 | 0.00 | 1.25 | 0.00 | 96 | 1013.0 |
| 20260510070031 | 67 | 188 | 0.0 | 0.0 | 0.00 | 1.25 | 0.00 | 96 | 1013.3 |
| 20260510064528 | 67 | 0 | 0.0 | 0.0 | 0.00 | 1.25 | 0.00 | 96 | 1013.6 |
| 20260510063029 | 67 | 0 | 0.0 | 1.0 | 0.00 | 1.25 | 0.00 | 96 | 1013.6 |
| 20260510061541 | 67 | 321 | 0.0 | 1.0 | 0.00 | 1.25 | 0.00 | 96 | 1013.7 |
| 20260510060029 | 67 | 0 | 0.0 | 0.0 | 0.00 | 1.25 | 0.00 | 96 | 1013.9 |
| 20260510054528 | 68 | 0 | 0.0 | 0.0 | 0.00 | 1.26 | 0.00 | 96 | 1014.1 |
| 20260510053030 | 68 | 0 | 0.0 | 0.0 | 0.00 | 1.26 | 0.00 | 96 | 1014.3 |
| 20260510051531 | 67 | 0 | 0.0 | 3.0 | 0.00 | 1.26 | 0.00 | 96 | 1013.8 |
| 20260510050027 | 68 | 0 | 0.0 | 1.0 | 0.00 | 1.26 | 0.00 | 96 | 1013.5 |
| 20260510044528 | 68 | 0 | 0.0 | 2.0 | 0.00 | 1.27 | 1.26 | 96 | 1014.2 |
| 20260510043028 | 68 | 0 | 0.0 | 0.0 | 0.00 | 1.27 | 1.26 | 96 | 1014.2 |
| 20260510041527 | 68 | 0 | 0.0 | 0.0 | 0.00 | 1.27 | 1.26 | 96 | 1014.4 |
| 20260510040030 | 68 | 0 | 0.0 | 0.0 | 0.00 | 1.27 | 1.26 | 96 | 1014.6 |
| 20260510034529 | 68 | 0 | 0.0 | 0.0 | 0.00 | 1.27 | 1.26 | 96 | 1014.6 |
| 20260510033029 | 68 | 0 | 0.0 | 0.0 | 0.00 | 1.27 | 1.26 | 96 | 1014.5 |
| 20260510031542 | 67 | 0 | 0.0 | 0.0 | 0.00 | 1.27 | 1.26 | 96 | 1014.4 |
| 20260510030030 | 68 | 0 | 0.0 | 0.0 | 0.00 | 1.27 | 1.26 | 96 | 1014.3 |
| 20260510024541 | 68 | 0 | 0.0 | 1.0 | 0.00 | 1.28 | 1.26 | 96 | 1013.9 |
| 20260510023030 | 68 | 17 | 0.0 | 2.0 | 0.00 | 1.28 | 1.26 | 95 | 1014.0 |
| 20260510021529 | 68 | 0 | 0.0 | 1.0 | 0.00 | 1.28 | 1.26 | 95 | 1014.0 |
| 20260510020028 | 68 | 0 | 0.0 | 1.0 | 0.01 | 1.28 | 1.26 | 95 | 1013.9 |
| 20260510014534 | 68 | 0 | 0.0 | 0.0 | 0.01 | 1.29 | 1.26 | 96 | 1014.2 |
| 20260510013029 | 68 | 0 | 0.0 | 0.0 | 0.01 | 1.29 | 1.26 | 95 | 1014.5 |
| 20260510011536 | 68 | 0 | 0.0 | 0.0 | 0.02 | 1.29 | 1.26 | 95 | 1014.3 |
| 20260510010031 | 68 | 0 | 0.0 | 1.0 | 0.01 | 1.28 | 1.25 | 95 | 1014.3 |
| 20260510004527 | 68 | 0 | 0.0 | 1.0 | 0.01 | 1.29 | 1.25 | 95 | 1013.8 |
| 20260510003055 | 68 | 0 | 0.0 | 3.0 | 0.01 | 1.29 | 1.25 | 95 | 1013.5 |
| 20260510001531 | 68 | 0 | 0.0 | 2.0 | 0.00 | 1.28 | 1.24 | 95 | 1012.9 |
| 20260510000028 | 68 | 174 | 0.0 | 2.0 | 0.01 | 1.28 | 1.24 | 95 | 1012.9 |
| 20260509234530 | 68 | 0 | 0.0 | 1.0 | 0.02 | 1.28 | 1.24 | 95 | 1013.2 |
| 20260509233029 | 69 | 0 | 0.0 | 0.0 | 0.03 | 1.28 | 1.24 | 95 | 1013.3 |
| 20260509231532 | 69 | 0 | 0.0 | 0.0 | 0.03 | 1.28 | 1.24 | 94 | 1013.7 |
| 20260509230034 | 69 | 0 | 0.0 | 0.0 | 0.02 | 1.27 | 1.23 | 94 | 1013.7 |
| 20260509224529 | 69 | 0 | 0.0 | 0.0 | 0.02 | 1.28 | 1.22 | 94 | 1013.4 |
| 20260509223030 | 69 | 0 | 0.0 | 1.0 | 0.01 | 1.27 | 1.21 | 94 | 1013.2 |
| 20260509221530 | 69 | 0 | 0.0 | 0.0 | 0.01 | 1.27 | 1.21 | 94 | 1013.3 |
| 20260509220030 | 69 | 161 | 0.0 | 2.0 | 0.03 | 1.27 | 1.21 | 94 | 1013.0 |
| 20260509214529 | 69 | 0 | 0.0 | 0.0 | 0.02 | 1.33 | 1.20 | 94 | 1013.0 |
| 20260509213026 | 69 | 0 | 0.0 | 0.0 | 0.03 | 1.33 | 1.20 | 94 | 1013.0 |
| 20260509211533 | 69 | 0 | 0.0 | 1.0 | 0.03 | 1.33 | 1.20 | 93 | 1013.1 |
| 20260509210028 | 69 | 0 | 0.0 | 0.0 | 0.01 | 1.31 | 1.17 | 92 | 1013.1 |
| 20260509204530 | 70 | 0 | 0.0 | 1.0 | 0.00 | 1.30 | 1.16 | 91 | 1012.8 |
| 20260509203034 | 70 | 0 | 0.0 | 2.0 | 0.00 | 1.30 | 1.16 | 91 | 1012.6 |
| 20260509201530 | 70 | 191 | 1.0 | 4.0 | 0.00 | 1.30 | 1.16 | 88 | 1011.6 |
| 20260509200028 | 70 | 0 | 1.0 | 4.0 | 0.00 | 1.30 | 1.16 | 88 | 1011.4 |
| 20260509194535 | 70 | 147 | 2.0 | 8.0 | 0.00 | 1.31 | 1.16 | 88 | 1011.3 |
| 20260509193030 | 70 | 148 | 3.0 | 8.0 | 0.00 | 1.31 | 1.16 | 88 | 1011.5 |